User: anonymous   Login
Location: Olda
(45.8833°N, 9.5500°E)
Time: 20:32:38
(UTC+00:00)
Language:

Resurs 01 Rocket - Orbit

View from above orbital plane
View from above orbital plane
View from above satellite
View from above satellite

Ground track
Ground track

The orbit data is extracted from the following two-line orbital elements,

1 23343U 94074B   21136.72872525  .00000033  00000-0  11920-4 0  9993
2 23343  97.9487 191.8424 0007590 147.3459 326.1383 14.76879231427607
Epoch (UTC): 16 May 2021 17:29:21
Eccentricity: 0.0007590
inclination: 97.9487°
perigee height: 634 km
apogee height: 644 km
right ascension of ascending node: 191.8424°
argument of perigee: 147.3459°
revolutions per day: 14.76879231
mean anomaly at epoch: 326.1383°
orbit number at epoch: 42760

The dashed part of the orbit path shows where the satellite is in the earth's shadow,  

DLR